Location: Baumgarten
(49.0970°N, 12.7493°E)
Time: 08:34:12
(UTC+00:00)

Cosmos 1844 - Pass Details

Date: 05 July 2020
Orbit: 822 x 868 km, 70.9° (Epoch: 04 August)

Event Time Altitude Azimuth Distance (km) Brightness Sun altitude
Rises 20:15:47 0° 330° (NNW) 3,462 9.0 -8.0°
Reaches altitude 10° 20:18:16 10° 329° (NNW) 2,518 7.8 -8.3°
Maximum altitude 20:24:05 79° 244° (WSW) 880 3.8 -8.9°
Enters shadow 20:29:41 11° 159° (SSE) 2,440 5.5 -9.5°
